Manistique, MI

8:22 PM EDT on May 22, 2017 (GMT -0400)
Schoolcraft County

Weather History for KISQ - June, 2014

Change the Weather History Date:

Tuesday, June 10, 2014

  Actual Average Record
Temperature  
Mean Temperature 58 °F -  
Max Temperature 72 °F 67 °F 81 °F (1956)
Min Temperature 44 °F 45 °F 31 °F (1972)
Degree Days  
Heating Degree Days 7    
Growing Degree Days 8 (Base 50)    
Moisture  
Dew Point 47 °F    
Average Humidity 68    
Maximum Humidity 95    
Minimum Humidity 40    
Precipitation  
Precipitation 0.00 in - - ()
Sea Level Pressure  
Sea Level Pressure 30.00 in    
Wind  
Wind Speed 5 mph (NNW)    
Max Wind Speed 12 mph    
Max Gust Speed 17 mph    
Visibility 10 miles    
Events      
Averages and records for this station are not official NWS values.
T = Trace of Precipitation, MM = Missing Value Source: NWS Daily Summary

Daily Weather History Graph

Daily Weather History Graph

Search for Another Location

Airport or City:

Trip Planner

Search our weather history database for the weather conditions in past years. The results will help you decide how hot, cold, wet, or windy it might be!

Date:

Astronomy

Jun. 10, 2014 Rise Set
Actual Time 5:53 AM EDT 9:34 PM EDT
Civil Twilight 5:15 AM EDT 10:12 PM EDT
Nautical Twilight 4:24 AM EDT 11:04 PM EDT
Astronomical Twilight 3:15 AM EDT 12:14 AM EDT
Moon 6:51 PM EDT (6/10) 4:08 AM EDT (6/10)
Length of Visible Light 16h 57m
Length of Day
15h 40m
Waxing Gibbous, 92% of the Moon is Illuminated
Jun 10
Waxing Gibbous
Jun 13
Full
Jun 19
Last Quarter
Jun 27
New
Jul 5
First Quarter

Hourly Weather History & Observations

Time (EDT) Temp. Windchill Dew Point Humidity Pressure Visibility Wind Dir Wind Speed Gust Speed Precip Events Conditions
12:14 AM 50.4 °F - 44.8 °F 81% 30.02 in 10.0 mi NW 3.5 mph - N/A   Clear
12:35 AM 50.4 °F - 45.5 °F 83% 30.02 in 10.0 mi Calm Calm - N/A   Clear
12:55 AM 48.4 °F - 44.4 °F 86% 30.02 in 10.0 mi North 4.6 mph - N/A   Clear
1:14 AM 48.7 °F - 44.6 °F 86% 30.02 in 10.0 mi North 6.9 mph - N/A   Clear
1:35 AM 48.7 °F - 44.4 °F 85% 30.02 in 10.0 mi North 6.9 mph - N/A   Clear
1:54 AM 47.7 °F - 43.7 °F 86% 30.02 in 10.0 mi North 6.9 mph - N/A   Clear
2:15 AM 47.7 °F - 43.9 °F 87% 30.01 in 10.0 mi North 6.9 mph - N/A   Clear
2:35 AM 48.2 °F - 43.9 °F 85% 30.01 in 10.0 mi North 6.9 mph - N/A   Clear
2:55 AM 47.3 °F - 43.9 °F 88% 30.00 in 10.0 mi North 6.9 mph - N/A   Clear
3:15 AM 45.9 °F 42.9 °F 43.3 °F 91% 30.01 in 10.0 mi North 5.8 mph - N/A   Clear
3:35 AM 45.7 °F 42.7 °F 43.2 °F 91% 30.01 in 10.0 mi North 5.8 mph - N/A   Clear
3:55 AM 46.4 °F 44.3 °F 43.9 °F 91% 30.01 in 10.0 mi NW 4.6 mph - N/A   Clear
4:14 AM 46.0 °F 43.1 °F 43.7 °F 92% 30.01 in 10.0 mi NW 5.8 mph - N/A   Clear
4:35 AM 46.4 °F 44.3 °F 43.9 °F 91% 30.01 in 10.0 mi NNE 4.6 mph - N/A   Clear
4:55 AM 46.0 °F 43.1 °F 43.5 °F 91% 30.01 in 10.0 mi NNW 5.8 mph - N/A   Clear
5:14 AM 44.8 °F 41.0 °F 43.0 °F 93% 30.01 in 10.0 mi WNW 6.9 mph - N/A   Clear
5:35 AM 45.5 °F 42.5 °F 43.9 °F 94% 30.01 in 10.0 mi WNW 5.8 mph - N/A   Clear
5:54 AM 45.1 °F 42.0 °F 43.9 °F 95% 30.01 in 10.0 mi NW 5.8 mph - N/A   Clear
6:15 AM 45.0 °F 41.8 °F 43.7 °F 95% 30.02 in 10.0 mi West 5.8 mph - N/A   Clear
6:35 AM 45.7 °F 43.4 °F 43.7 °F 93% 30.02 in 10.0 mi WNW 4.6 mph - N/A   Clear
6:54 AM 47.1 °F - 44.6 °F 91% 30.02 in 10.0 mi West 6.9 mph - N/A   Clear
7:15 AM 49.6 °F - 46.6 °F 89% 30.02 in 10.0 mi WNW 5.8 mph - N/A   Clear
7:35 AM 51.4 °F - 47.3 °F 86% 30.03 in 10.0 mi WNW 5.8 mph - N/A   Clear
7:55 AM 54.1 °F - 48.0 °F 80% 30.03 in 10.0 mi North - - N/A   Clear
8:15 AM 57.4 °F - 48.9 °F 73% 30.04 in 10.0 mi North - - N/A   Clear
8:34 AM 59.9 °F - 49.5 °F 68% 30.04 in 10.0 mi NNE 3.5 mph - N/A   Clear
8:55 AM 61.5 °F - 49.8 °F 65% 30.03 in 10.0 mi North - - N/A   Clear
9:15 AM 63.3 °F - 50.5 °F 63% 30.03 in 10.0 mi North - - N/A   Clear
9:55 AM 66.9 °F - 51.6 °F 58% 30.03 in 10.0 mi Calm Calm - N/A   Clear
10:15 AM 67.8 °F - 51.3 °F 55% 30.02 in 10.0 mi Calm Calm - N/A   Clear
10:34 AM 69.1 °F - 50.9 °F 52% 30.02 in 10.0 mi North - - N/A   Clear
11:14 AM 68.4 °F - 52.3 °F 57% 30.02 in 10.0 mi South 11.5 mph 17.3 mph N/A   Clear
11:35 AM 66.9 °F - 50.5 °F 56% 30.02 in 10.0 mi North - - N/A   Clear
11:55 AM 67.3 °F - 48.4 °F 51% 30.03 in 10.0 mi North - - N/A   Clear
12:14 PM 67.5 °F - 48.6 °F 51% 30.03 in 10.0 mi North - - N/A   Clear
12:35 PM 69.3 °F - 47.5 °F 46% 30.03 in 10.0 mi North - - N/A   Clear
1:14 PM 69.1 °F - 48.2 °F 47% 30.02 in 10.0 mi North - - N/A   Clear
1:35 PM 69.8 °F - 46.8 °F 44% 30.02 in 10.0 mi North - - N/A   Clear
1:55 PM 71.4 °F - 46.8 °F 41% 30.01 in 10.0 mi North - - N/A   Clear
2:14 PM 70.9 °F - 46.9 °F 42% 30.01 in 10.0 mi North - - N/A   Clear
2:35 PM 72.7 °F - 47.5 °F 41% 30.01 in 10.0 mi SE 6.9 mph - N/A   Clear
3:15 PM 71.8 °F - 46.0 °F 40% 30.00 in 10.0 mi North - - N/A   Clear
3:35 PM 70.5 °F - 46.8 °F 43% 30.00 in 10.0 mi North - - N/A   Clear
3:54 PM 70.7 °F - 46.9 °F 43% 30.00 in 10.0 mi North - - N/A   Clear
4:15 PM 71.1 °F - 46.4 °F 41% 29.99 in 10.0 mi North - - N/A   Clear
4:35 PM 71.2 °F - 46.8 °F 42% 29.99 in 10.0 mi SE 5.8 mph - N/A   Clear
5:15 PM 71.6 °F - 47.7 °F 43% 29.99 in 10.0 mi SSE 6.9 mph - N/A   Clear
5:35 PM 71.6 °F - 47.3 °F 42% 29.99 in 10.0 mi South 6.9 mph - N/A   Clear
5:54 PM 71.2 °F - 46.6 °F 41% 29.98 in 10.0 mi South 8.1 mph - N/A   Clear
6:15 PM 70.9 °F - 46.9 °F 42% 29.98 in 10.0 mi South 6.9 mph - N/A   Clear
6:34 PM 70.7 °F - 47.7 °F 44% 29.97 in 10.0 mi South 6.9 mph - N/A   Clear
6:55 PM 69.1 °F - 48.9 °F 49% 29.97 in 10.0 mi Calm Calm - N/A   Clear
7:15 PM 68.7 °F - 49.3 °F 50% 29.96 in 10.0 mi SSE 3.5 mph - N/A   Clear
7:34 PM 67.8 °F - 49.3 °F 51% 29.96 in 10.0 mi Calm Calm - N/A   Clear
7:55 PM 67.1 °F - 49.8 °F 54% 29.96 in 10.0 mi Calm Calm - N/A   Clear
8:15 PM 65.1 °F - 54.7 °F 69% 29.96 in 10.0 mi Calm Calm - N/A   Clear
8:34 PM 65.3 °F - 50.5 °F 59% 29.95 in 10.0 mi Calm Calm - N/A   Clear
8:55 PM 63.7 °F - 52.7 °F 67% 29.95 in 10.0 mi North - - N/A   Clear
9:14 PM 62.4 °F - 53.6 °F 73% 29.95 in 10.0 mi North - - N/A   Clear
9:35 PM 61.7 °F - 51.8 °F 70% 29.95 in 10.0 mi North - - N/A   Clear
9:55 PM 59.0 °F - 50.9 °F 74% 29.95 in 10.0 mi Calm Calm - N/A   Clear
10:14 PM 59.4 °F - 50.5 °F 73% 29.95 in 10.0 mi North - - N/A   Clear
10:35 PM 59.0 °F - 50.9 °F 74% 29.95 in 10.0 mi North - - N/A   Clear
11:14 PM 56.5 °F - 50.0 °F 79% 29.95 in 10.0 mi North - - N/A   Clear
11:35 PM 54.3 °F - 50.0 °F 85% 29.95 in 10.0 mi North - - N/A   Clear
11:55 PM 54.1 °F - 49.1 °F 83% 29.95 in 10.0 mi North - - N/A   Clear